Miles City, MT

10:15 PM MDT on April 29, 2017 (GMT -0600)
Wiley

Weather History for KMLS - October, 2011

Change the Weather History Date:

Saturday, October 8, 2011

  Actual Average Record
Temperature  
Mean Temperature 48 °F 50 °F  
Max Temperature 59 °F 63 °F 86 °F (1980)
Min Temperature 37 °F 37 °F 19 °F (1985)
Degree Days  
Heating Degree Days 17 15  
Month to date heating degree days 30 111  
Since 1 July heating degree days 133 347  
Cooling Degree Days 0 0  
Month to date cooling degree days 33 0  
Year to date cooling degree days 763 728  
Moisture  
Dew Point 40 °F    
Average Humidity 68    
Maximum Humidity 93    
Minimum Humidity 43    
Precipitation  
Precipitation 0.01 in 0.03 in 0.83 in (1997)
Month to date precipitation 0.49 0.29  
Year to date precipitation 18.26 11.13  
Sea Level Pressure  
Sea Level Pressure 30.17 in    
Wind  
Wind Speed 10 mph (NW)    
Max Wind Speed 20 mph    
Max Gust Speed 24 mph    
Visibility 10 miles    
Events Rain    
T = Trace of Precipitation, MM = Missing Value Source: NWS Daily Summary

Daily Weather History Graph

Daily Weather History Graph

Search for Another Location

Airport or City:

Trip Planner

Search our weather history database for the weather conditions in past years. The results will help you decide how hot, cold, wet, or windy it might be!

Date:

Astronomy

Oct. 08, 2011 Rise Set
Actual Time 7:11 AM MDT 6:30 PM MDT
Civil Twilight 6:41 AM MDT 7:00 PM MDT
Nautical Twilight 6:06 AM MDT 7:35 PM MDT
Astronomical Twilight 5:30 AM MDT 8:10 PM MDT
Moon 4:49 PM MDT (10/8) 3:51 AM MDT (10/8)
Length of Visible Light 12h 19m
Length of Day
11h 19m
Waxing Gibbous, 90% of the Moon is Illuminated
Oct 8
Waxing Gibbous
Oct 11
Full
Oct 19
Last Quarter
Oct 26
New
Nov 2
First Quarter

Hourly Weather History & Observations

Time (MDT) Temp. Windchill Dew Point Humidity Pressure Visibility Wind Dir Wind Speed Gust Speed Precip Events Conditions
12:53 AM 48.9 °F - 46.0 °F 90% 29.95 in 7.0 mi West 10.4 mph - 0.06 in Rain Light Rain
1:53 AM 48.0 °F - 46.0 °F 93% 29.97 in 10.0 mi WNW 9.2 mph - 0.01 in   Overcast
2:53 AM 48.9 °F - 45.0 °F 86% 29.96 in 10.0 mi NW 11.5 mph - N/A   Overcast
3:53 AM 46.9 °F - 43.0 °F 86% 30.00 in 10.0 mi WNW 9.2 mph - N/A   Clear
4:53 AM 48.0 °F - 44.1 °F 86% 30.06 in 10.0 mi West 6.9 mph - N/A   Overcast
5:53 AM 48.0 °F - 44.1 °F 86% 30.09 in 10.0 mi WNW 9.2 mph - 0.00 in   Overcast
7:53 AM 46.9 °F - 43.0 °F 86% 30.17 in 10.0 mi WNW 10.4 mph - 0.00 in   Overcast
8:53 AM 48.0 °F - 43.0 °F 83% 30.17 in 10.0 mi WNW 9.2 mph - N/A   Clear
9:53 AM 50.0 °F - 42.1 °F 74% 30.19 in 10.0 mi NW 16.1 mph - N/A   Clear
10:53 AM 51.1 °F - 42.1 °F 71% 30.21 in 10.0 mi NW 11.5 mph - N/A   Partly Cloudy
11:53 AM 52.0 °F - 41.0 °F 66% 30.22 in 10.0 mi NNW 13.8 mph 19.6 mph N/A   Partly Cloudy
12:53 PM 54.0 °F - 39.0 °F 57% 30.23 in 10.0 mi NW 17.3 mph 23.0 mph N/A   Mostly Cloudy
1:53 PM 55.9 °F - 39.9 °F 55% 30.21 in 10.0 mi NNW 13.8 mph 20.7 mph N/A   Scattered Clouds
2:53 PM 57.9 °F - 39.0 °F 49% 30.20 in 10.0 mi NNW 17.3 mph - N/A   Mostly Cloudy
3:53 PM 57.0 °F - 37.0 °F 47% 30.20 in 10.0 mi NNW 13.8 mph 19.6 mph N/A   Clear
4:53 PM 57.0 °F - 35.1 °F 44% 30.21 in 10.0 mi North 15.0 mph 21.9 mph N/A   Partly Cloudy
5:53 PM 55.0 °F - 35.1 °F 47% 30.23 in 10.0 mi North 9.2 mph - N/A   Clear
6:53 PM 50.0 °F - 35.6 °F 58% 30.24 in 10.0 mi North 6.9 mph - N/A   Clear
7:53 PM 48.2 °F - 37.4 °F 66% 30.26 in 10.0 mi North 5.8 mph - N/A   Clear
8:53 PM 46.9 °F - 36.0 °F 66% 30.29 in 10.0 mi North 5.8 mph - N/A   Clear
9:53 PM 43.0 °F 39.5 °F 36.0 °F 76% 30.29 in 10.0 mi NW 5.8 mph - N/A   Clear
10:53 PM 43.0 °F - 35.1 °F 74% 30.30 in 10.0 mi Calm Calm - N/A   Clear